Weather History for KGTF - October, 2014

Change the Weather History Date:

Tuesday, October 28, 2014

  Actual Average Record
Temperature  
Mean Temperature 40 °F 41 °F  
Max Temperature 55 °F 52 °F 76 °F (1937)
Min Temperature 25 °F 29 °F -5 °F (1925)
Degree Days  
Heating Degree Days 25 24  
Month to date heating degree days 362 539  
Since 1 July heating degree days 687 946  
Cooling Degree Days 0 0  
Month to date cooling degree days 1 0  
Year to date cooling degree days 350 297  
Moisture  
Dew Point 23 °F    
Average Humidity 59    
Maximum Humidity 92    
Minimum Humidity 26    
Precipitation  
Precipitation 0.00 in 0.02 in 0.58 in (1972)
Month to date precipitation 0.47 0.80  
Year to date precipitation 17.65 13.55  
Snow  
Snow 0.00 in 0.20 in 5.90 in (2013)
Month to date snowfall 1.1 3.6  
Since 1 July snowfall 1.1 5.1  
Since 1 September snowfall 1.1 4.8  
Snow Depth 0.00 in    
Sea Level Pressure  
Sea Level Pressure 30.10 in    
Wind  
Wind Speed 15 mph (SSW)    
Max Wind Speed 26 mph    
Max Gust Speed 32 mph    
Visibility 10 miles    
Events      
T = Trace of Precipitation, MM = Missing Value Source: NWS Daily Summary

Daily Weather History Graph

Daily Weather History Graph

Search for Another Location

Airport or City:

Trip Planner

Search our weather history database for the weather conditions in past years. The results will help you decide how hot, cold, wet, or windy it might be!

Date:

Astronomy

Oct. 28, 2014 Rise Set
Actual Time 8:03 AM MDT 6:14 PM MDT
Civil Twilight 7:31 AM MDT 6:46 PM MDT
Nautical Twilight 6:55 AM MDT 7:22 PM MDT
Astronomical Twilight 6:19 AM MDT 7:57 PM MDT
Moon 12:43 PM MDT (10/28) 10:16 PM MDT (10/28)
Length of Visible Light 11h 14m
Length of Day
10h 11m
Waxing Crescent, 25% of the Moon is Illuminated
Oct 28
Waxing Crescent
Oct 30
First Quarter
Nov 6
Full
Nov 14
Last Quarter
Nov 22
New

Hourly Weather History & Observations

Time (MDT) Temp. Windchill Dew Point Humidity Pressure Visibility Wind Dir Wind Speed Gust Speed Precip Events Conditions
12:53 AM 27.0 °F 18.7 °F 25.0 °F 92% 30.20 in 10.0 mi SSW 8.1 mph - N/A   Clear
1:53 AM 27.0 °F 17.3 °F 25.0 °F 92% 30.19 in 10.0 mi SSW 10.4 mph - N/A   Clear
2:53 AM 26.1 °F 16.8 °F 23.0 °F 88% 30.19 in 10.0 mi SSW 9.2 mph - N/A   Clear
3:53 AM 26.1 °F 17.6 °F 23.0 °F 88% 30.18 in 10.0 mi South 8.1 mph - N/A   Clear
4:53 AM 27.0 °F 18.7 °F 21.9 °F 81% 30.18 in 10.0 mi South 8.1 mph - N/A   Clear
5:53 AM 27.0 °F 19.5 °F 21.9 °F 81% 30.18 in 10.0 mi South 6.9 mph - N/A   Clear
6:53 AM 25.0 °F 14.8 °F 19.9 °F 81% 30.19 in 10.0 mi SSW 10.4 mph - N/A   Clear
7:53 AM 27.0 °F 18.0 °F 21.9 °F 81% 30.18 in 10.0 mi South 9.2 mph - N/A   Clear
8:53 AM 30.9 °F 22.2 °F 24.1 °F 76% 30.19 in 10.0 mi SSW 10.4 mph - N/A   Clear
9:53 AM 39.0 °F 31.4 °F 26.1 °F 60% 30.17 in 10.0 mi SW 12.7 mph - N/A   Clear
10:53 AM 45.0 °F 37.4 °F 24.1 °F 44% 30.13 in 10.0 mi SSW 18.4 mph - N/A   Clear
11:53 AM 48.0 °F - 19.9 °F 33% 30.12 in 10.0 mi SW 25.3 mph - N/A   Clear
12:53 PM 50.0 °F - 19.0 °F 29% 30.10 in 10.0 mi SW 19.6 mph - N/A   Clear
1:53 PM 50.0 °F - 18.0 °F 28% 30.07 in 10.0 mi SW 21.9 mph 29.9 mph N/A   Clear
2:53 PM 53.1 °F - 19.0 °F 26% 30.06 in 10.0 mi SW 19.6 mph 26.5 mph N/A   Clear
3:53 PM 54.0 °F - 21.9 °F 29% 30.06 in 10.0 mi SW 18.4 mph 26.5 mph N/A   Clear
4:53 PM 52.0 °F - 23.0 °F 32% 30.05 in 10.0 mi SW 17.3 mph - N/A   Clear
5:53 PM 51.1 °F - 24.1 °F 35% 30.04 in 10.0 mi SSW 16.1 mph 24.2 mph N/A   Clear
6:53 PM 51.1 °F - 26.1 °F 38% 30.05 in 10.0 mi SSW 11.5 mph - N/A   Clear
7:53 PM 50.0 °F - 26.1 °F 39% 30.03 in 10.0 mi SW 16.1 mph - N/A   Clear
8:53 PM 48.9 °F - 26.1 °F 41% 30.02 in 10.0 mi SW 16.1 mph - N/A   Clear
9:53 PM 50.0 °F - 26.1 °F 39% 29.99 in 10.0 mi SW 18.4 mph - N/A   Clear
10:53 PM 46.9 °F - 26.1 °F 44% 29.99 in 10.0 mi SW 16.1 mph - N/A   Clear
11:53 PM 52.0 °F - 28.0 °F 40% 29.94 in 10.0 mi SW 21.9 mph 28.8 mph N/A   Clear